• Em Portugal
  • Lista de países
  • Para 7 dias
  • Temperatura da água
  • Mapas de satélite
  • Mapa do tempo
  • Widgets de tempo
  • user-avatar
    Iniciar Sessão

    Previsão horária em Megri

    Hoje, 24 Janeiro, Quarta-feira

    Tempo Temperatura Precipitação Vento Pressão Humidade
    00:00 -1°C° 0 mm 2 m/s 617 mmHg 54%
    01:00 -2°C° 0 mm 2 m/s 617 mmHg 57%
    02:00 -2°C° 0 mm 2 m/s 617 mmHg 60%
    03:00 -2°C° 0 mm 2 m/s 617 mmHg 63%
    04:00 -2°C° 0 mm 2 m/s 617 mmHg 64%
    05:00 -3°C° 0 mm 2 m/s 617 mmHg 65%
    06:00 -3°C° 0 mm 2 m/s 617 mmHg 67%
    07:00 -2°C° 0 mm 2 m/s 618 mmHg 66%
    08:00 -2°C° 0 mm 2 m/s 619 mmHg 64%
    09:00 +1°C° 0 mm 1 m/s 619 mmHg 63%
    10:00 +1°C° 0 mm 2 m/s 619 mmHg 62%
    11:00 +2°C° 0 mm 2 m/s 620 mmHg 60%
    12:00 +3°C° 0 mm 2 m/s 620 mmHg 59%
    13:00 +3°C° 0 mm 2 m/s 620 mmHg 58%
    14:00 +3°C° 0 mm 2 m/s 620 mmHg 58%
    15:00 +5°C° 0 mm 1 m/s 620 mmHg 57%
    16:00 +4°C° 0 mm 1 m/s 620 mmHg 59%
    17:00 +2°C° 0 mm 1 m/s 620 mmHg 62%
    18:00 +1°C° 0 mm 1 m/s 620 mmHg 64%
    19:00 +1°C° 0 mm 1 m/s 620 mmHg 65%
    20:00 +1°C° 0 mm 1 m/s 620 mmHg 66%
    21:00 +1°C° 0 mm 1 m/s 620 mmHg 67%
    22:00 0°C° 0 mm 1 m/s 620 mmHg 68%
    23:00 0°C° 0 mm 1 m/s 620 mmHg 70%

    Amanhã, 25 Janeiro, Quinta-feira

    Tempo Temperatura Precipitação Vento Pressão Humidade
    00:00 0°C° 0 mm 1 m/s 620 mmHg 71%
    01:00 0°C° 0 mm 1 m/s 620 mmHg 72%
    02:00 0°C° 0 mm 1 m/s 620 mmHg 74%
    03:00 0°C° 0 mm 1 m/s 620 mmHg 75%
    04:00 0°C° 0,1 mm 1 m/s 620 mmHg 76%
    05:00 -1°C° 0,1 mm 1 m/s 620 mmHg 77%
    06:00 -1°C° 0,1 mm 1 m/s 620 mmHg 79%
    07:00 0°C° 0,1 mm 1 m/s 621 mmHg 77%
    08:00 -2°C° 0,1 mm 2 m/s 621 mmHg 76%
    09:00 -1°C° 0,1 mm 2 m/s 622 mmHg 74%
    10:00 +1°C° 0,1 mm 2 m/s 622 mmHg 72%
    11:00 +1°C° 0,1 mm 2 m/s 622 mmHg 69%
    12:00 +2°C° 0,1 mm 2 m/s 622 mmHg 67%
    13:00 +3°C° 0 mm 2 m/s 622 mmHg 66%
    14:00 +3°C° 0 mm 2 m/s 621 mmHg 65%
    15:00 +3°C° 0 mm 2 m/s 621 mmHg 65%
    16:00 +2°C° 0,1 mm 2 m/s 621 mmHg 69%
    17:00 +1°C° 0,1 mm 2 m/s 621 mmHg 73%
    18:00 -1°C° 0,1 mm 2 m/s 621 mmHg 77%
    19:00 -1°C° 0 mm 2 m/s 621 mmHg 78%
    20:00 -2°C° 0 mm 3 m/s 621 mmHg 80%
    21:00 -2°C° 0 mm 3 m/s 620 mmHg 82%
    22:00 -2°C° 0 mm 3 m/s 620 mmHg 82%
    23:00 -2°C° 0 mm 3 m/s 621 mmHg 82%

    Depois de amanhã, 26 Janeiro, Sexta-feira

    Tempo Temperatura Precipitação Vento Pressão Humidade
    00:00 -4°C° 0 mm 3 m/s 621 mmHg 82%
    01:00 -4°C° 0,4 mm 3 m/s 620 mmHg 83%
    02:00 -4°C° 0,4 mm 3 m/s 620 mmHg 84%
    03:00 -4°C° 0,4 mm 3 m/s 620 mmHg 85%
    04:00 -4°C° 0,6 mm 3 m/s 620 mmHg 85%
    05:00 -4°C° 0,6 mm 3 m/s 620 mmHg 85%
    06:00 -4°C° 0,6 mm 3 m/s 619 mmHg 85%
    07:00 -4°C° 0,7 mm 3 m/s 619 mmHg 85%
    08:00 -4°C° 0,7 mm 4 m/s 619 mmHg 85%
    09:00 -4°C° 0,7 mm 4 m/s 619 mmHg 85%
    10:00 -4°C° 0,9 mm 4 m/s 619 mmHg 85%
    11:00 -2°C° 0,9 mm 3 m/s 619 mmHg 85%
    12:00 -2°C° 0,9 mm 3 m/s 619 mmHg 85%
    13:00 -2°C° 0,6 mm 3 m/s 619 mmHg 84%
    14:00 -2°C° 0,6 mm 3 m/s 619 mmHg 83%
    15:00 -2°C° 0,6 mm 3 m/s 619 mmHg 83%
    16:00 -2°C° 0,3 mm 3 m/s 619 mmHg 84%
    17:00 -4°C° 0,3 mm 3 m/s 619 mmHg 85%
    18:00 -4°C° 0,3 mm 3 m/s 619 mmHg 86%
    19:00 -5°C° 0,2 mm 3 m/s 619 mmHg 86%
    20:00 -5°C° 0,2 mm 3 m/s 619 mmHg 86%
    21:00 -4°C° 0,2 mm 2 m/s 619 mmHg 86%
    22:00 -4°C° 0,1 mm 2 m/s 619 mmHg 86%
    23:00 -4°C° 0,1 mm 2 m/s 619 mmHg 86%

    27 Janeiro, Sábado

    Tempo Temperatura Precipitação Vento Pressão Humidade
    00:00 -4°C° 0,1 mm 2 m/s 619 mmHg 86%
    01:00 -4°C° 0,1 mm 2 m/s 619 mmHg 86%
    02:00 -4°C° 0,1 mm 2 m/s 619 mmHg 87%
    03:00 -5°C° 0,1 mm 2 m/s 619 mmHg 87%
    04:00 -6°C° 0,3 mm 3 m/s 619 mmHg 87%
    05:00 -6°C° 0,3 mm 3 m/s 619 mmHg 88%
    06:00 -6°C° 0,3 mm 3 m/s 619 mmHg 88%
    07:00 -6°C° 0,5 mm 3 m/s 619 mmHg 87%
    08:00 -6°C° 0,5 mm 3 m/s 619 mmHg 86%
    09:00 -5°C° 0,5 mm 3 m/s 620 mmHg 85%
    10:00 -5°C° 0,3 mm 4 m/s 620 mmHg 84%
    11:00 -4°C° 0,3 mm 4 m/s 620 mmHg 83%
    12:00 -4°C° 0,3 mm 4 m/s 620 mmHg 81%
    13:00 -4°C° 0,2 mm 4 m/s 620 mmHg 81%
    14:00 -4°C° 0,2 mm 4 m/s 620 mmHg 80%
    15:00 -4°C° 0,2 mm 4 m/s 620 mmHg 80%
    16:00 -5°C° 0,2 mm 4 m/s 621 mmHg 81%
    17:00 -7°C° 0,2 mm 4 m/s 621 mmHg 83%
    18:00 -6°C° 0,2 mm 3 m/s 621 mmHg 85%
    19:00 -7°C° 0,1 mm 3 m/s 622 mmHg 85%
    20:00 -7°C° 0,1 mm 3 m/s 622 mmHg 85%
    21:00 -7°C° 0,1 mm 3 m/s 623 mmHg 85%
    22:00 -7°C° 0,1 mm 3 m/s 623 mmHg 85%
    23:00 -7°C° 0,1 mm 3 m/s 623 mmHg 86%

    28 Janeiro, Domingo

    Tempo Temperatura Precipitação Vento Pressão Humidade
    00:00 -8°C° 0,1 mm 3 m/s 623 mmHg 86%
    01:00 -8°C° 0,1 mm 3 m/s 623 mmHg 86%
    02:00 -7°C° 0,1 mm 2 m/s 624 mmHg 86%
    03:00 -8°C° 0,1 mm 2 m/s 624 mmHg 85%
    04:00 -8°C° 0,1 mm 2 m/s 624 mmHg 85%
    05:00 -8°C° 0,1 mm 2 m/s 624 mmHg 85%
    06:00 -8°C° 0,1 mm 2 m/s 624 mmHg 84%
    07:00 -7°C° 0,1 mm 2 m/s 625 mmHg 82%
    08:00 -7°C° 0,1 mm 2 m/s 625 mmHg 80%
    09:00 -6°C° 0,1 mm 2 m/s 626 mmHg 79%
    10:00 -5°C° 0 mm 2 m/s 626 mmHg 76%
    11:00 -6°C° 0 mm 3 m/s 626 mmHg 74%
    12:00 -5°C° 0 mm 3 m/s 626 mmHg 72%
    13:00 -5°C° 0 mm 3 m/s 626 mmHg 72%
    14:00 -4°C° 0 mm 3 m/s 626 mmHg 71%
    15:00 -4°C° 0 mm 3 m/s 626 mmHg 70%
    16:00 -5°C° 0 mm 3 m/s 626 mmHg 74%
    17:00 -6°C° 0 mm 2 m/s 626 mmHg 77%
    18:00 -7°C° 0 mm 2 m/s 625 mmHg 81%
    19:00 -7°C° 0 mm 2 m/s 625 mmHg 81%
    20:00 -8°C° 0 mm 2 m/s 626 mmHg 82%
    21:00 -8°C° 0 mm 2 m/s 626 mmHg 82%
    22:00 -9°C° 0 mm 2 m/s 625 mmHg 82%
    23:00 -9°C° 0 mm 2 m/s 625 mmHg 82%

    29 Janeiro, Segunda-feira

    Tempo Temperatura Precipitação Vento Pressão Humidade
    00:00 -9°C° 0 mm 2 m/s 625 mmHg 82%
    01:00 -10°C° 0 mm 2 m/s 625 mmHg 81%
    02:00 -10°C° 0 mm 2 m/s 624 mmHg 80%
    03:00 -10°C° 0 mm 2 m/s 624 mmHg 79%
    04:00 -9°C° 0 mm 1 m/s 624 mmHg 78%
    05:00 -10°C° 0 mm 1 m/s 624 mmHg 77%
    06:00 -10°C° 0 mm 1 m/s 624 mmHg 76%
    07:00 -9°C° 0 mm 1 m/s 625 mmHg 74%
    08:00 -8°C° 0 mm 1 m/s 625 mmHg 72%
    09:00 -7°C° 0 mm 1 m/s 626 mmHg 70%
    10:00 -7°C° 0 mm 2 m/s 626 mmHg 67%
    11:00 -6°C° 0 mm 2 m/s 626 mmHg 65%
    12:00 -4°C° 0 mm 2 m/s 626 mmHg 62%
    13:00 -4°C° 0 mm 2 m/s 625 mmHg 62%
    14:00 -4°C° 0 mm 2 m/s 625 mmHg 63%
    15:00 -4°C° 0 mm 2 m/s 625 mmHg 63%
    16:00 -5°C° 0 mm 2 m/s 625 mmHg 67%
    17:00 -7°C° 0 mm 2 m/s 624 mmHg 71%
    18:00 -8°C° 0 mm 2 m/s 624 mmHg 75%
    19:00 -9°C° 0 mm 2 m/s 624 mmHg 76%
    20:00 -9°C° 0 mm 2 m/s 624 mmHg 77%
    21:00 -10°C° 0 mm 2 m/s 624 mmHg 78%
    22:00 -10°C° 0 mm 2 m/s 624 mmHg 77%
    23:00 -9°C° 0 mm 1 m/s 624 mmHg 76%
    Mostrar mais